Regional Weather Roundup
Issued by NWS

Home | Current Version | Previous Version | Graphics & Text | Print | Product List | Glossary Off
Versions: 1 2 3 4 5 6 7 8 9 10 11 12 13 14 15 16 17 18 19 20 21 22 23 24 25 26 27 28 29 30 31 32 33 34 35 36 37 38 39 40 41 42 43 44 45 46 47 48 49 50

000
ASUS43 KTOP 040759
RWRKS

WEATHER ROUNDUP FOR KANSAS
NATIONAL WEATHER SERVICE GOODLAND KS
300 AM CDT FRI SEP 04 2015

NOTE:  "FAIR" INDICATES FEW OR NO CLOUDS BELOW 12,000 FEET WITH NO
SIGNIFICANT WEATHER AND/OR OBSTRUCTIONS TO VISIBILITY.

KSZ001>006-013>018-027>032-041>047-040900-
NORTHWEST KANSAS

CITY           SKY/WX    TMP DP  RH WIND       PRES   REMARKS
GOODLAND       PTCLDY    66  56  70 W8        29.84F
HAYS           MOCLDY    81  57  44 S12       29.83S
HILL CITY      MOCLDY    80  59  48 S12       29.80S
RUSSELL        MOCLDY    79  60  52 S17       29.82F
$$

KSZ061>065-074>080-084>089-040900-
SOUTHWEST KANSAS

CITY           SKY/WX    TMP DP  RH WIND       PRES   REMARKS
DODGE CITY     PTCLDY    73  57  57 S12       29.88S
ELKHART          N/A     71  53  52 S12         N/A
GARDEN CITY    CLEAR     74  57  55 S12       29.85F
GREAT BEND     PTCLDY    75  61  60 S20       29.85S
LIBERAL        MOCLDY    77  54  44 S13       29.89S
$$

KSZ066>073-081>083-090>101-040900-
SOUTHEAST KANSAS

CITY           SKY/WX    TMP DP  RH WIND       PRES   REMARKS
CHANUTE        MOCLDY    73  68  84 SE7       29.93F
COFFEYVILLE    PTCLDY    72  68  87 S3        29.92S
HUTCHINSON     MOCLDY    77  63  61 S10       29.89S
NEWTON         MOCLDY    73  61  64 S9        29.93S
PARSONS        MOCLDY    74  69  85 VRB3      29.93F
WICHITA INTL   CLOUDY    75  64  68 S9        29.90S
WICHITA JABRA  MOCLDY    74  65  73 S8        29.91S
WINFIELD       PTCLDY    73  66  78 SE9       29.92S
$$

KSZ007>012-019>026-033>040-048>060-102>105-040900-
NORTHEAST KANSAS

CITY           SKY/WX    TMP DP  RH WIND       PRES   REMARKS
CONCORDIA      MOCLDY    76  65  68 S13       29.85S
EMPORIA        CLOUDY    73  68  84 S10       29.92S
LAWRENCE       PTCLDY    71  68  90 SE7       29.92S
MANHATTAN      MOCLDY    77  67  71 S9        29.88R
OLATHE IND     PTCLDY    73  67  81 SE7       29.95S
OLATHE EXE     PTCLDY    70  67  90 SE5       29.94S
SALINA         CLOUDY    81  63  54 S17       29.86S
TOPEKA BILLARD PTCLDY    75  68  78 S8        29.91S
TOPEKA FORBES  PTCLDY    73  68  84 SE5       29.92S
$$



USA.gov is the U.S. government's official web portal to all federal, state and local government web resources and services.